owner,sensor,date,latitude,longitude,vertical_datum,direction_of_sea_water_velocity,sea_water_speed,upward_sea_water_velocity,qcFlag 
TABS,ioos:station:wmo:42050:1,2014-05-01T00:00:00Z,28.8425,-94.2433,2.0,207.6761317,28.5912714,-99999.0,'11111222,11111222,99999999' 
TABS,ioos:station:wmo:42050:1,2014-05-01T00:30:00Z,28.8425,-94.2433,2.0,208.2295405,30.6336449,-99999.0,'11111222,11111222,99999999' 
TABS,ioos:station:wmo:42050:1,2014-05-01T01:00:00Z,28.8425,-94.2433,2.0,216.5894469,31.08637161,-99999.0,'11111222,11111222,99999999' 
TABS,ioos:station:wmo:42050:1,2014-05-01T01:30:00Z,28.8425,-94.2433,2.0,217.6306205,30.26666979,-99999.0,'11111222,11111222,99999999' 
TABS,ioos:station:wmo:42050:1,2014-05-01T02:00:00Z,28.8425,-94.2433,2.0,220.8350214,32.1309228,-99999.0,'11111222,11111222,99999999' 
TABS,ioos:station:wmo:42050:1,2014-05-01T02:30:00Z,28.8425,-94.2433,2.0,224.3202069,28.0246124,-99999.0,'11111222,11111222,99999999' 
TABS,ioos:station:wmo:42050:1,2014-05-01T03:00:00Z,28.8425,-94.2433,2.0,225.1239697,29.33792937,-99999.0,'11111222,11111222,99999999' 
TABS,ioos:station:wmo:42050:1,2014-05-01T03:30:00Z,28.8425,-94.2433,2.0,228.5118219,28.74130303,-99999.0,'11111222,11111222,99999999' 
TABS,ioos:station:wmo:42050:1,2014-05-01T04:00:00Z,28.8425,-94.2433,2.0,230.3275265,27.49087303,-99999.0,'11111222,11111222,99999999' 
TABS,ioos:station:wmo:42050:1,2014-05-01T04:30:00Z,28.8425,-94.2433,2.0,229.1709668,24.59468439,-99999.0,'11111222,11111222,99999999' 
TABS,ioos:station:wmo:42050:1,2014-05-01T05:00:00Z,28.8425,-94.2433,2.0,235.9316839,22.70714645,-99999.0,'11111222,11111222,99999999' 
TABS,ioos:station:wmo:42050:1,2014-05-01T05:30:00Z,28.8425,-94.2433,2.0,248.4095918,23.15450928,-99999.0,'11111222,11111222,99999999' 
TABS,ioos:station:wmo:42050:1,2014-05-01T06:00:00Z,28.8425,-94.2433,2.0,249.5571601,21.84577305,-99999.0,'11111222,11111222,99999999' 
TABS,ioos:station:wmo:42050:1,2014-05-01T06:30:00Z,28.8425,-94.2433,2.0,257.5195767,19.11158026,-99999.0,'11111222,11111222,99999999' 
TABS,ioos:station:wmo:42050:1,2014-05-01T07:00:00Z,28.8425,-94.2433,2.0,254.4503043,19.47269884,-99999.0,'11111222,11111222,99999999' 
TABS,ioos:station:wmo:42050:1,2014-05-01T07:30:00Z,28.8425,-94.2433,2.0,265.3720902,21.31949577,-99999.0,'11111222,11111222,99999999' 
TABS,ioos:station:wmo:42050:1,2014-05-01T08:00:00Z,28.8425,-94.2433,2.0,262.2683905,20.51649337,-99999.0,'11111222,11111222,99999999' 
TABS,ioos:station:wmo:42050:1,2014-05-01T08:30:00Z,28.8425,-94.2433,2.0,272.0772963,20.14323211,-99999.0,'11111222,11111222,99999999' 
TABS,ioos:station:wmo:42050:1,2014-05-01T09:00:00Z,28.8425,-94.2433,2.0,266.8957227,20.50007317,-99999.0,'11111222,11111222,99999999' 
TABS,ioos:station:wmo:42050:1,2014-05-01T09:30:00Z,28.8425,-94.2433,2.0,267.5138416,19.59844126,-99999.0,'11111222,11111222,99999999' 
TABS,ioos:station:wmo:42050:1,2014-05-01T10:00:00Z,28.8425,-94.2433,2.0,273.6174057,19.33852114,-99999.0,'11111222,11111222,99999999' 
TABS,ioos:station:wmo:42050:1,2014-05-01T10:30:00Z,28.8425,-94.2433,2.0,259.2124069,18.48667628,-99999.0,'11111222,11111222,99999999' 
TABS,ioos:station:wmo:42050:1,2014-05-01T11:00:00Z,28.8425,-94.2433,2.0,259.7598284,17.32596029,-99999.0,'11111222,11111222,99999999' 
TABS,ioos:station:wmo:42050:1,2014-05-01T11:30:00Z,28.8425,-94.2433,2.0,265.2552131,17.28923943,-99999.0,'11111222,11111222,99999999' 
TABS,ioos:station:wmo:42050:1,2014-05-01T12:00:00Z,28.8425,-94.2433,2.0,251.946489,16.13429887,-99999.0,'11111222,11111222,99999999' 
TABS,ioos:station:wmo:42050:1,2014-05-01T12:30:00Z,28.8425,-94.2433,2.0,250.2484216,15.83137707,-99999.0,'11111222,11111222,99999999' 
TABS,ioos:station:wmo:42050:1,2014-05-01T13:00:00Z,28.8425,-94.2433,2.0,251.5446888,18.13250121,-99999.0,'11111222,11111222,99999999' 
TABS,ioos:station:wmo:42050:1,2014-05-01T13:30:00Z,28.8425,-94.2433,2.0,257.5374838,16.77524366,-99999.0,'11111222,11111222,99999999' 
TABS,ioos:station:wmo:42050:1,2014-05-01T14:00:00Z,28.8425,-94.2433,2.0,254.4105781,17.00556674,-99999.0,'11111222,11111222,99999999' 
TABS,ioos:station:wmo:42050:1,2014-05-01T14:30:00Z,28.8425,-94.2433,2.0,250.88665,18.17171979,-99999.0,'11111222,11111222,99999999' 
TABS,ioos:station:wmo:42050:1,2014-05-01T15:00:00Z,28.8425,-94.2433,2.0,251.3184689,20.60559147,-99999.0,'11111222,11111222,99999999' 
TABS,ioos:station:wmo:42050:1,2014-05-01T15:30:00Z,28.8425,-94.2433,2.0,255.7577903,18.25092326,-99999.0,'11111222,11111222,99999999' 
TABS,ioos:station:wmo:42050:1,2014-05-01T16:00:00Z,28.8425,-94.2433,2.0,263.2675475,18.08468966,-99999.0,'11111222,11111222,99999999' 
TABS,ioos:station:wmo:42050:1,2014-05-01T16:30:00Z,28.8425,-94.2433,2.0,262.8430848,20.30821016,-99999.0,'11111222,11111222,99999999' 
TABS,ioos:station:wmo:42050:1,2014-05-01T17:00:00Z,28.8425,-94.2433,2.0,261.6645315,20.55713988,-99999.0,'11111222,11111222,99999999' 
TABS,ioos:station:wmo:42050:1,2014-05-01T17:30:00Z,28.8425,-94.2433,2.0,265.1069309,20.28390988,-99999.0,'11111222,11111222,99999999' 
TABS,ioos:station:wmo:42050:1,2014-05-01T18:00:00Z,28.8425,-94.2433,2.0,275.1458671,19.06683508,-99999.0,'11111222,11111222,99999999' 
TABS,ioos:station:wmo:42050:1,2014-05-01T18:30:00Z,28.8425,-94.2433,2.0,275.1606993,18.23390249,-99999.0,'11111222,11111222,99999999' 
TABS,ioos:station:wmo:42050:1,2014-05-01T19:00:00Z,28.8425,-94.2433,2.0,274.1424894,19.5209887,-99999.0,'11111222,11111222,99999999' 
TABS,ioos:station:wmo:42050:1,2014-05-01T19:30:00Z,28.8425,-94.2433,2.0,273.8546353,19.93508716,-99999.0,'11111222,11111222,99999999' 
TABS,ioos:station:wmo:42050:1,2014-05-01T20:00:00Z,28.8425,-94.2433,2.0,276.7206675,22.47441434,-99999.0,'11111222,11111222,99999999' 
TABS,ioos:station:wmo:42050:1,2014-05-01T20:30:00Z,28.8425,-94.2433,2.0,281.387649,18.8918845,-99999.0,'11111222,11111222,99999999' 
TABS,ioos:station:wmo:42050:1,2014-05-01T21:00:00Z,28.8425,-94.2433,2.0,276.1788346,24.25085978,-99999.0,'11111222,11111222,99999999' 
TABS,ioos:station:wmo:42050:1,2014-05-01T21:30:00Z,28.8425,-94.2433,2.0,279.5349942,22.15606915,-99999.0,'11111222,11111222,99999999' 
TABS,ioos:station:wmo:42050:1,2014-05-01T22:00:00Z,28.8425,-94.2433,2.0,280.1752023,20.49227415,-99999.0,'11111222,11111222,99999999' 
TABS,ioos:station:wmo:42050:1,2014-05-01T22:30:00Z,28.8425,-94.2433,2.0,276.313578,18.73360617,-99999.0,'11111222,11111222,99999999' 
TABS,ioos:station:wmo:42050:1,2014-05-01T23:00:00Z,28.8425,-94.2433,2.0,266.4311976,17.99488816,-99999.0,'11111222,11111222,99999999' 
TABS,ioos:station:wmo:42050:1,2014-05-01T23:30:00Z,28.8425,-94.2433,2.0,266.7131021,21.45528606,-99999.0,'11111222,11111222,99999999' 
TABS,ioos:station:wmo:42050:1,2014-05-02T00:00:00Z,28.8425,-94.2433,2.0,265.4256685,19.8130992,-99999.0,'11111222,11111222,99999999' 
TABS,ioos:station:wmo:42050:1,2014-05-02T00:30:00Z,28.8425,-94.2433,2.0,256.8883663,18.77955537,-99999.0,'11111222,11111222,99999999' 
TABS,ioos:station:wmo:42050:1,2014-05-02T01:00:00Z,28.8425,-94.2433,2.0,253.1254212,17.87982662,-99999.0,'11111222,11111222,99999999' 
TABS,ioos:station:wmo:42050:1,2014-05-02T01:30:00Z,28.8425,-94.2433,2.0,249.0743311,19.79558031,-99999.0,'11111222,11111222,99999999' 
TABS,ioos:station:wmo:42050:1,2014-05-02T02:00:00Z,28.8425,-94.2433,2.0,243.1424098,18.41649532,-99999.0,'11111222,11111222,99999999' 
TABS,ioos:station:wmo:42050:1,2014-05-02T02:30:00Z,28.8425,-94.2433,2.0,253.1906179,18.50044864,-99999.0,'11111222,11111222,99999999' 
TABS,ioos:station:wmo:42050:1,2014-05-02T03:00:00Z,28.8425,-94.2433,2.0,249.546043,20.28911531,-99999.0,'11111222,11111222,99999999' 
TABS,ioos:station:wmo:42050:1,2014-05-02T03:30:00Z,28.8425,-94.2433,2.0,247.9736684,18.47868502,-99999.0,'11111222,11111222,99999999' 
TABS,ioos:station:wmo:42050:1,2014-05-02T04:00:00Z,28.8425,-94.2433,2.0,259.5781895,18.46459314,-99999.0,'11111222,11111222,99999999' 
TABS,ioos:station:wmo:42050:1,2014-05-02T04:30:00Z,28.8425,-94.2433,2.0,267.2003914,17.20052325,-99999.0,'11111222,11111222,99999999' 
TABS,ioos:station:wmo:42050:1,2014-05-02T05:00:00Z,28.8425,-94.2433,2.0,275.262804,16.0275544,-99999.0,'11111222,11111222,99999999' 
TABS,ioos:station:wmo:42050:1,2014-05-02T05:30:00Z,28.8425,-94.2433,2.0,279.5179073,15.3614485,-99999.0,'11111222,11111222,99999999' 
TABS,ioos:station:wmo:42050:1,2014-05-02T06:00:00Z,28.8425,-94.2433,2.0,291.0775081,15.57179823,-99999.0,'11111222,11111222,99999999' 
TABS,ioos:station:wmo:42050:1,2014-05-02T06:30:00Z,28.8425,-94.2433,2.0,294.9332755,16.48650964,-99999.0,'11111222,11111222,99999999' 
TABS,ioos:station:wmo:42050:1,2014-05-02T07:00:00Z,28.8425,-94.2433,2.0,305.0349056,16.54848936,-99999.0,'11111222,11111222,99999999' 
TABS,ioos:station:wmo:42050:1,2014-05-02T07:30:00Z,28.8425,-94.2433,2.0,309.5497677,16.89847626,-99999.0,'11111222,11111222,99999999' 
TABS,ioos:station:wmo:42050:1,2014-05-02T08:00:00Z,28.8425,-94.2433,2.0,311.6256677,17.41795912,-99999.0,'11111222,11111222,99999999' 
TABS,ioos:station:wmo:42050:1,2014-05-02T08:30:00Z,28.8425,-94.2433,2.0,317.2456088,17.86816443,-99999.0,'11111222,11111222,99999999' 
TABS,ioos:station:wmo:42050:1,2014-05-02T09:00:00Z,28.8425,-94.2433,2.0,322.7152762,14.90639125,-99999.0,'11111222,11111222,99999999' 
TABS,ioos:station:wmo:42050:1,2014-05-02T09:30:00Z,28.8425,-94.2433,2.0,315.6655053,14.00872942,-99999.0,'11111222,11111222,99999999' 
TABS,ioos:station:wmo:42050:1,2014-05-02T10:00:00Z,28.8425,-94.2433,2.0,317.4001258,12.15875816,-99999.0,'11111222,11111222,99999999' 
TABS,ioos:station:wmo:42050:1,2014-05-02T10:30:00Z,28.8425,-94.2433,2.0,317.8093902,10.24414467,-99999.0,'11111222,11111222,99999999' 
TABS,ioos:station:wmo:42050:1,2014-05-02T11:00:00Z,28.8425,-94.2433,2.0,296.3114094,7.061572063,-99999.0,'11133222,11111222,99999999' 
TABS,ioos:station:wmo:42050:1,2014-05-02T11:30:00Z,28.8425,-94.2433,2.0,279.6550336,6.857120387,-99999.0,'11133222,11111222,99999999' 
TABS,ioos:station:wmo:42050:1,2014-05-02T12:00:00Z,28.8425,-94.2433,2.0,280.8821745,5.773820226,-99999.0,'11133222,11111222,99999999' 
TABS,ioos:station:wmo:42050:1,2014-05-02T12:30:00Z,28.8425,-94.2433,2.0,287.0536958,5.114890028,-99999.0,'11133222,11111222,99999999' 
TABS,ioos:station:wmo:42050:1,2014-05-02T13:00:00Z,28.8425,-94.2433,2.0,256.5394073,9.408432388,-99999.0,'11133222,11111222,99999999' 
TABS,ioos:station:wmo:42050:1,2014-05-02T13:30:00Z,28.8425,-94.2433,2.0,242.0842628,9.868272392,-99999.0,'11133222,11111222,99999999' 
TABS,ioos:station:wmo:42050:1,2014-05-02T14:00:00Z,28.8425,-94.2433,2.0,224.5532338,8.167331265,-99999.0,'11133222,11111222,99999999' 
TABS,ioos:station:wmo:42050:1,2014-05-02T14:30:00Z,28.8425,-94.2433,2.0,237.4674775,11.52902424,-99999.0,'11111222,11111222,99999999' 
TABS,ioos:station:wmo:42050:1,2014-05-02T15:00:00Z,28.8425,-94.2433,2.0,234.0412733,8.549081822,-99999.0,'11133222,11111222,99999999' 
TABS,ioos:station:wmo:42050:1,2014-05-02T15:30:00Z,28.8425,-94.2433,2.0,225.1907965,10.59958961,-99999.0,'11111222,11111222,99999999' 
TABS,ioos:station:wmo:42050:1,2014-05-02T16:00:00Z,28.8425,-94.2433,2.0,238.0769682,13.21924733,-99999.0,'11111222,11111222,99999999' 
TABS,ioos:station:wmo:42050:1,2014-05-02T16:30:00Z,28.8425,-94.2433,2.0,224.8236073,11.50468166,-99999.0,'11111222,11111222,99999999' 
TABS,ioos:station:wmo:42050:1,2014-05-02T17:00:00Z,28.8425,-94.2433,2.0,243.0076254,12.60282905,-99999.0,'11111222,11111222,99999999' 
TABS,ioos:station:wmo:42050:1,2014-05-02T17:30:00Z,28.8425,-94.2433,2.0,228.0230535,12.06589408,-99999.0,'11111222,11111222,99999999' 
TABS,ioos:station:wmo:42050:1,2014-05-02T18:00:00Z,28.8425,-94.2433,2.0,235.3904071,10.54620785,-99999.0,'11111222,11111222,99999999' 
TABS,ioos:station:wmo:42050:1,2014-05-02T18:30:00Z,28.8425,-94.2433,2.0,237.8926746,13.15141437,-99999.0,'11111222,11111222,99999999' 
TABS,ioos:station:wmo:42050:1,2014-05-02T19:00:00Z,28.8425,-94.2433,2.0,229.8252612,14.12148009,-99999.0,'11111222,11111222,99999999' 
TABS,ioos:station:wmo:42050:1,2014-05-02T19:30:00Z,28.8425,-94.2433,2.0,235.8081618,13.31054094,-99999.0,'11111222,11111222,99999999' 
TABS,ioos:station:wmo:42050:1,2014-05-02T20:00:00Z,28.8425,-94.2433,2.0,231.147081,15.78144797,-99999.0,'11111222,11111222,99999999' 
TABS,ioos:station:wmo:42050:1,2014-05-02T20:30:00Z,28.8425,-94.2433,2.0,230.3814008,16.05847128,-99999.0,'11111222,11111222,99999999' 
TABS,ioos:station:wmo:42050:1,2014-05-02T21:00:00Z,28.8425,-94.2433,2.0,233.6735961,17.91080679,-99999.0,'11111222,11111222,99999999' 
TABS,ioos:station:wmo:42050:1,2014-05-02T21:30:00Z,28.8425,-94.2433,2.0,233.1464898,20.55800088,-99999.0,'11111222,11111222,99999999' 
TABS,ioos:station:wmo:42050:1,2014-05-02T22:00:00Z,28.8425,-94.2433,2.0,233.8148847,21.40953059,-99999.0,'11111222,11111222,99999999' 
TABS,ioos:station:wmo:42050:1,2014-05-02T22:30:00Z,28.8425,-94.2433,2.0,237.4833835,24.37032006,-99999.0,'11111222,11111222,99999999' 
TABS,ioos:station:wmo:42050:1,2014-05-02T23:00:00Z,28.8425,-94.2433,2.0,235.3193617,24.39381069,-99999.0,'11111222,11111222,99999999' 
TABS,ioos:station:wmo:42050:1,2014-05-02T23:30:00Z,28.8425,-94.2433,2.0,237.6488622,24.08888956,-99999.0,'11111222,11111222,99999999' 
TABS,ioos:station:wmo:42050:1,2014-05-03T00:00:00Z,28.8425,-94.2433,2.0,237.1622757,24.60090445,-99999.0,'11111222,11111222,99999999' 
TABS,ioos:station:wmo:42050:1,2014-05-03T00:30:00Z,28.8425,-94.2433,2.0,239.4656869,23.77723281,-99999.0,'11111222,11111222,99999999' 
TABS,ioos:station:wmo:42050:1,2014-05-03T01:00:00Z,28.8425,-94.2433,2.0,236.993005,22.32272385,-99999.0,'11111222,11111222,99999999' 
TABS,ioos:station:wmo:42050:1,2014-05-03T01:30:00Z,28.8425,-94.2433,2.0,236.4172214,22.14644441,-99999.0,'11111222,11111222,99999999' 
TABS,ioos:station:wmo:42050:1,2014-05-03T02:00:00Z,28.8425,-94.2433,2.0,241.3952172,22.74627442,-99999.0,'11111222,11111222,99999999' 
TABS,ioos:station:wmo:42050:1,2014-05-03T02:30:00Z,28.8425,-94.2433,2.0,249.116282,22.94746173,-99999.0,'11111222,11111222,99999999' 
TABS,ioos:station:wmo:42050:1,2014-05-03T03:00:00Z,28.8425,-94.2433,2.0,239.13027,19.78238863,-99999.0,'11111222,11111222,99999999' 
TABS,ioos:station:wmo:42050:1,2014-05-03T03:30:00Z,28.8425,-94.2433,2.0,251.4001146,18.71759867,-99999.0,'11111222,11111222,99999999' 
TABS,ioos:station:wmo:42050:1,2014-05-03T04:00:00Z,28.8425,-94.2433,2.0,261.8603548,17.72858144,-99999.0,'11111222,11111222,99999999' 
TABS,ioos:station:wmo:42050:1,2014-05-03T04:30:00Z,28.8425,-94.2433,2.0,266.0921051,16.72888819,-99999.0,'11111222,11111222,99999999' 
TABS,ioos:station:wmo:42050:1,2014-05-03T05:00:00Z,28.8425,-94.2433,2.0,272.1602616,17.51244129,-99999.0,'11111222,11111222,99999999' 
TABS,ioos:station:wmo:42050:1,2014-05-03T05:30:00Z,28.8425,-94.2433,2.0,286.195102,16.09881052,-99999.0,'11111222,11111222,99999999' 
TABS,ioos:station:wmo:42050:1,2014-05-03T06:00:00Z,28.8425,-94.2433,2.0,297.5159293,14.827171,-99999.0,'11111222,11111222,99999999' 
TABS,ioos:station:wmo:42050:1,2014-05-03T06:30:00Z,28.8425,-94.2433,2.0,305.1586411,14.39642317,-99999.0,'11111222,11111222,99999999' 
TABS,ioos:station:wmo:42050:1,2014-05-03T07:00:00Z,28.8425,-94.2433,2.0,309.2841689,14.48285193,-99999.0,'11111222,11111222,99999999' 
TABS,ioos:station:wmo:42050:1,2014-05-03T07:30:00Z,28.8425,-94.2433,2.0,323.6488975,15.47063347,-99999.0,'11111222,11111222,99999999' 
TABS,ioos:station:wmo:42050:1,2014-05-03T08:00:00Z,28.8425,-94.2433,2.0,323.6528372,13.1605471,-99999.0,'11111222,11111222,99999999' 
TABS,ioos:station:wmo:42050:1,2014-05-03T08:30:00Z,28.8425,-94.2433,2.0,332.7092734,13.41301234,-99999.0,'11111222,11111222,99999999' 
TABS,ioos:station:wmo:42050:1,2014-05-03T09:00:00Z,28.8425,-94.2433,2.0,344.6597512,12.36039239,-99999.0,'11111222,11111222,99999999' 
TABS,ioos:station:wmo:42050:1,2014-05-03T09:30:00Z,28.8425,-94.2433,2.0,342.0377347,11.12210861,-99999.0,'11111222,11111222,99999999' 
TABS,ioos:station:wmo:42050:1,2014-05-03T10:00:00Z,28.8425,-94.2433,2.0,358.1102974,10.91593789,-99999.0,'11111222,11111222,99999999' 
TABS,ioos:station:wmo:42050:1,2014-05-03T10:30:00Z,28.8425,-94.2433,2.0,357.4275972,8.688757103,-99999.0,'11133222,11111222,99999999' 
TABS,ioos:station:wmo:42050:1,2014-05-03T11:00:00Z,28.8425,-94.2433,2.0,17.80989089,6.37553135,-99999.0,'11133222,11111222,99999999' 
TABS,ioos:station:wmo:42050:1,2014-05-03T11:30:00Z,28.8425,-94.2433,2.0,13.86419022,4.841032948,-99999.0,'11133222,11111222,99999999' 
TABS,ioos:station:wmo:42050:1,2014-05-03T12:00:00Z,28.8425,-94.2433,2.0,51.03466033,4.977328601,-99999.0,'11133222,11111222,99999999' 
TABS,ioos:station:wmo:42050:1,2014-05-03T12:30:00Z,28.8425,-94.2433,2.0,106.9163783,4.295881749,-99999.0,'11133222,11111222,99999999' 
TABS,ioos:station:wmo:42050:1,2014-05-03T13:00:00Z,28.8425,-94.2433,2.0,108.5723051,7.912041456,-99999.0,'11133222,11111222,99999999' 
TABS,ioos:station:wmo:42050:1,2014-05-03T13:30:00Z,28.8425,-94.2433,2.0,114.9390561,7.565427946,-99999.0,'11133222,11111222,99999999' 
TABS,ioos:station:wmo:42050:1,2014-05-03T14:00:00Z,28.8425,-94.2433,2.0,130.58754,9.099148312,-99999.0,'11133222,11111222,99999999' 
TABS,ioos:station:wmo:42050:1,2014-05-03T14:30:00Z,28.8425,-94.2433,2.0,136.1076836,10.24082028,-99999.0,'11111222,11111222,99999999' 
TABS,ioos:station:wmo:42050:1,2014-05-03T15:00:00Z,28.8425,-94.2433,2.0,143.1007008,11.74200153,-99999.0,'11111222,11111222,99999999' 
TABS,ioos:station:wmo:42050:1,2014-05-03T15:30:00Z,28.8425,-94.2433,2.0,141.1273982,15.56750783,-99999.0,'11111222,11111222,99999999' 
TABS,ioos:station:wmo:42050:1,2014-05-03T16:00:00Z,28.8425,-94.2433,2.0,145.5366821,11.71633475,-99999.0,'11111222,11111222,99999999' 
TABS,ioos:station:wmo:42050:1,2014-05-03T16:30:00Z,28.8425,-94.2433,2.0,140.4522176,12.79997656,-99999.0,'11111222,11111222,99999999' 
TABS,ioos:station:wmo:42050:1,2014-05-03T17:00:00Z,28.8425,-94.2433,2.0,140.3261572,12.79732003,-99999.0,'11111222,11111222,99999999' 
TABS,ioos:station:wmo:42050:1,2014-05-03T17:30:00Z,28.8425,-94.2433,2.0,136.0664458,10.63672882,-99999.0,'11111222,11111222,99999999' 
TABS,ioos:station:wmo:42050:1,2014-05-03T18:00:00Z,28.8425,-94.2433,2.0,138.2197284,14.60359545,-99999.0,'11111222,11111222,99999999' 
TABS,ioos:station:wmo:42050:1,2014-05-03T18:30:00Z,28.8425,-94.2433,2.0,148.8593585,13.34265341,-99999.0,'11111222,11111222,99999999' 
TABS,ioos:station:wmo:42050:1,2014-05-03T19:00:00Z,28.8425,-94.2433,2.0,144.9733923,14.98375454,-99999.0,'11111222,11111222,99999999' 
TABS,ioos:station:wmo:42050:1,2014-05-03T19:30:00Z,28.8425,-94.2433,2.0,131.858524,39.7425515,-99999.0,'11111222,11111222,99999999' 
TABS,ioos:station:wmo:42050:1,2014-05-03T20:00:00Z,28.8425,-94.2433,2.0,141.5089979,33.37135448,-99999.0,'11111222,11111222,99999999' 
TABS,ioos:station:wmo:42050:1,2014-05-03T20:30:00Z,28.8425,-94.2433,2.0,148.3237521,32.27852847,-99999.0,'11111222,11111222,99999999' 
TABS,ioos:station:wmo:42050:1,2014-05-03T21:00:00Z,28.8425,-94.2433,2.0,157.286287,28.69542298,-99999.0,'11111222,11111222,99999999' 
TABS,ioos:station:wmo:42050:1,2014-05-03T21:30:00Z,28.8425,-94.2433,2.0,166.8847141,28.51374756,-99999.0,'11111222,11111222,99999999' 
TABS,ioos:station:wmo:42050:1,2014-05-03T22:00:00Z,28.8425,-94.2433,2.0,166.1735773,28.45447065,-99999.0,'11111222,11111222,99999999' 
TABS,ioos:station:wmo:42050:1,2014-05-03T22:30:00Z,28.8425,-94.2433,2.0,164.4573945,23.43703906,-99999.0,'11111222,11111222,99999999' 
TABS,ioos:station:wmo:42050:1,2014-05-03T23:00:00Z,28.8425,-94.2433,2.0,161.5391175,21.0955564,-99999.0,'11111222,11111222,99999999' 
TABS,ioos:station:wmo:42050:1,2014-05-03T23:30:00Z,28.8425,-94.2433,2.0,177.0802644,24.54185405,-99999.0,'11111222,11111222,99999999' 
TABS,ioos:station:wmo:42050:1,2014-05-04T00:00:00Z,28.8425,-94.2433,2.0,165.1260182,23.06275135,-99999.0,'11111222,11111222,99999999' 
TABS,ioos:station:wmo:42050:1,2014-05-04T00:30:00Z,28.8425,-94.2433,2.0,177.9131188,22.7951157,-99999.0,'11111222,11111222,99999999' 
TABS,ioos:station:wmo:42050:1,2014-05-04T01:00:00Z,28.8425,-94.2433,2.0,179.6176544,22.49050022,-99999.0,'11111222,11111222,99999999' 
TABS,ioos:station:wmo:42050:1,2014-05-04T01:30:00Z,28.8425,-94.2433,2.0,188.8939764,20.89120628,-99999.0,'11111222,11111222,99999999' 
TABS,ioos:station:wmo:42050:1,2014-05-04T02:00:00Z,28.8425,-94.2433,2.0,185.8070679,17.09774839,-99999.0,'11111222,11111222,99999999' 
TABS,ioos:station:wmo:42050:1,2014-05-04T02:30:00Z,28.8425,-94.2433,2.0,196.3173347,14.37920721,-99999.0,'11111222,11111222,99999999' 
TABS,ioos:station:wmo:42050:1,2014-05-04T03:00:00Z,28.8425,-94.2433,2.0,189.1756138,12.16567713,-99999.0,'11111222,11111222,99999999' 
TABS,ioos:station:wmo:42050:1,2014-05-04T03:30:00Z,28.8425,-94.2433,2.0,196.7461969,6.975851203,-99999.0,'11133222,11111222,99999999' 
TABS,ioos:station:wmo:42050:1,2014-05-04T04:00:00Z,28.8425,-94.2433,2.0,213.1760943,8.661991688,-99999.0,'11133222,11111222,99999999' 
TABS,ioos:station:wmo:42050:1,2014-05-04T04:30:00Z,28.8425,-94.2433,2.0,192.7622476,4.25512632,-99999.0,'11133222,11111222,99999999' 
TABS,ioos:station:wmo:42050:1,2014-05-04T05:00:00Z,28.8425,-94.2433,2.0,211.7667812,3.058120338,-99999.0,'11133222,11111222,99999999' 
TABS,ioos:station:wmo:42050:1,2014-05-04T05:30:00Z,28.8425,-94.2433,2.0,164.1126582,1.351628647,-99999.0,'11133222,11111222,99999999' 
TABS,ioos:station:wmo:42050:1,2014-05-04T06:00:00Z,28.8425,-94.2433,2.0,11.31011649,0.968813708,-99999.0,'11133222,11111222,99999999' 
TABS,ioos:station:wmo:42050:1,2014-05-04T06:30:00Z,28.8425,-94.2433,2.0,90.0,2.47,-99999.0,'11133222,11111222,99999999' 
TABS,ioos:station:wmo:42050:1,2014-05-04T07:00:00Z,28.8425,-94.2433,2.0,59.78037334,2.245105788,-99999.0,'11133222,11111222,99999999' 
TABS,ioos:station:wmo:42050:1,2014-05-04T07:30:00Z,28.8425,-94.2433,2.0,48.31685818,5.744258003,-99999.0,'11133222,11111222,99999999' 
TABS,ioos:station:wmo:42050:1,2014-05-04T08:00:00Z,28.8425,-94.2433,2.0,57.0814331,8.446076012,-99999.0,'11133222,11111222,99999999' 
TABS,ioos:station:wmo:42050:1,2014-05-04T08:30:00Z,28.8425,-94.2433,2.0,55.46978747,8.132779353,-99999.0,'11133222,11111222,99999999' 
TABS,ioos:station:wmo:42050:1,2014-05-04T09:00:00Z,28.8425,-94.2433,2.0,65.17951671,9.69561241,-99999.0,'11133222,11111222,99999999' 
TABS,ioos:station:wmo:42050:1,2014-05-04T09:30:00Z,28.8425,-94.2433,2.0,57.66867146,10.05954273,-99999.0,'11111222,11111222,99999999' 
TABS,ioos:station:wmo:42050:1,2014-05-04T10:00:00Z,28.8425,-94.2433,2.0,69.91664685,12.20195476,-99999.0,'11111222,11111222,99999999' 
TABS,ioos:station:wmo:42050:1,2014-05-04T10:30:00Z,28.8425,-94.2433,2.0,69.26214551,12.90619231,-99999.0,'11111222,11111222,99999999' 
TABS,ioos:station:wmo:42050:1,2014-05-04T11:00:00Z,28.8425,-94.2433,2.0,82.31603614,13.98558186,-99999.0,'11111222,11111222,99999999' 
TABS,ioos:station:wmo:42050:1,2014-05-04T11:30:00Z,28.8425,-94.2433,2.0,95.30661688,13.40746434,-99999.0,'11111222,11111222,99999999' 
TABS,ioos:station:wmo:42050:1,2014-05-04T12:00:00Z,28.8425,-94.2433,2.0,103.9217666,16.99935587,-99999.0,'11111222,11111222,99999999' 
TABS,ioos:station:wmo:42050:1,2014-05-04T12:30:00Z,28.8425,-94.2433,2.0,111.9480721,13.77863927,-99999.0,'11111222,11111222,99999999' 
TABS,ioos:station:wmo:42050:1,2014-05-04T13:00:00Z,28.8425,-94.2433,2.0,133.322519,13.04463875,-99999.0,'11111222,11111222,99999999' 
TABS,ioos:station:wmo:42050:1,2014-05-04T13:30:00Z,28.8425,-94.2433,2.0,129.911248,13.87153921,-99999.0,'11111222,11111222,99999999' 
TABS,ioos:station:wmo:42050:1,2014-05-04T14:00:00Z,28.8425,-94.2433,2.0,132.4642075,16.78193374,-99999.0,'11111222,11111222,99999999' 
TABS,ioos:station:wmo:42050:1,2014-05-04T14:30:00Z,28.8425,-94.2433,2.0,149.786803,18.06378144,-99999.0,'11111222,11111222,99999999' 
TABS,ioos:station:wmo:42050:1,2014-05-04T15:00:00Z,28.8425,-94.2433,2.0,152.0219656,19.9517919,-99999.0,'11111222,11111222,99999999' 
TABS,ioos:station:wmo:42050:1,2014-05-04T15:30:00Z,28.8425,-94.2433,2.0,155.7196003,19.4066097,-99999.0,'11111222,11111222,99999999' 
TABS,ioos:station:wmo:42050:1,2014-05-04T16:00:00Z,28.8425,-94.2433,2.0,163.1675395,22.27431031,-99999.0,'11111222,11111222,99999999' 